Time,TemperatureF,DewpointF,PressureIn,WindDirection,WindDirectionDegrees,WindSpeedMPH,WindSpeedGustMPH,Humidity,HourlyPrecipIn,Conditions,Clouds,dailyrainin,SoftwareType,DateUTC
2013-04-25 00:00:00,35.0,-99.9,29.86,South,190,2.0,-999.0,-999,-99.99,,,-99.99,,2013-04-25 00:00:00,
2013-04-25 00:52:00,35.0,-99.9,29.86,South,190,2.0,-999.0,-999,-99.99,,,-99.99,,2013-04-25 00:52:00,
2013-04-25 01:00:00,35.0,-99.9,29.87,South,180,11.0,-999.0,-999,-99.99,,,-99.99,,2013-04-25 01:00:00,
2013-04-25 01:53:00,35.0,-99.9,29.87,South,180,11.0,-999.0,-999,-99.99,,,-99.99,,2013-04-25 01:53:00,
2013-04-25 02:00:00,35.0,-99.9,29.88,South,170,10.0,-999.0,-999,-99.99,,,-99.99,,2013-04-25 02:00:00,
2013-04-25 03:00:00,36.0,-99.9,29.88,South,170,5.0,-999.0,-999,-99.99,,,-99.99,,2013-04-25 03:00:00,
2013-04-25 03:43:00,36.0,-99.9,29.88,South,170,5.0,-999.0,-999,-99.99,,,-99.99,,2013-04-25 03:43:00,
2013-04-25 03:52:00,36.0,-99.9,29.88,South,170,5.0,-999.0,-999,-99.99,,,-99.99,,2013-04-25 03:52:00,
2013-04-25 04:00:00,35.0,-99.9,29.88,South,170,11.0,-999.0,-999,-99.99,,,-99.99,,2013-04-25 04:00:00,
2013-04-25 04:23:00,35.0,-99.9,29.88,South,170,11.0,-999.0,-999,-99.99,,,-99.99,,2013-04-25 04:23:00,
2013-04-25 04:33:00,35.0,-99.9,29.88,South,170,11.0,-999.0,-999,-99.99,,,-99.99,,2013-04-25 04:33:00,
2013-04-25 04:43:00,35.0,-99.9,29.88,South,170,11.0,-999.0,-999,-99.99,,,-99.99,,2013-04-25 04:43:00,
2013-04-25 04:52:00,35.0,-99.9,29.88,South,170,11.0,-999.0,-999,-99.99,,,-99.99,,2013-04-25 04:52:00,
2013-04-25 05:00:00,35.0,-99.9,29.86,South,170,10.0,-999.0,-999,-99.99,,,-99.99,,2013-04-25 05:00:00,
2013-04-25 05:12:00,35.0,-99.9,29.86,South,170,10.0,-999.0,-999,-99.99,,,-99.99,,2013-04-25 05:12:00,
2013-04-25 05:22:00,35.0,-99.9,29.86,South,170,10.0,-999.0,-999,-99.99,,,-99.99,,2013-04-25 05:22:00,
2013-04-25 05:32:00,35.0,-99.9,29.86,South,170,10.0,-999.0,-999,-99.99,,,-99.99,,2013-04-25 05:32:00,
2013-04-25 05:42:00,35.0,-99.9,29.86,South,170,10.0,-999.0,-999,-99.99,,,-99.99,,2013-04-25 05:42:00,
2013-04-25 05:52:00,35.0,-99.9,29.86,South,170,10.0,-999.0,-999,-99.99,,,-99.99,,2013-04-25 05:52:00,
2013-04-25 06:00:00,38.0,-99.9,29.85,NNE,20,14.0,-999.0,-999,-99.99,,,-99.99,,2013-04-25 06:00:00,
2013-04-25 06:12:00,38.0,-99.9,29.85,NNE,20,14.0,-999.0,-999,-99.99,,,-99.99,,2013-04-25 06:12:00,
2013-04-25 06:22:00,38.0,-99.9,29.85,NNE,20,14.0,-999.0,-999,-99.99,,,-99.99,,2013-04-25 06:22:00,
2013-04-25 06:32:00,38.0,-99.9,29.85,NNE,20,14.0,-999.0,-999,-99.99,,,-99.99,,2013-04-25 06:32:00,
2013-04-25 06:42:00,38.0,-99.9,29.85,NNE,20,14.0,-999.0,-999,-99.99,,,-99.99,,2013-04-25 06:42:00,
2013-04-25 06:52:00,38.0,-99.9,29.85,NNE,20,14.0,-999.0,-999,-99.99,,,-99.99,,2013-04-25 06:52:00,
2013-04-25 07:00:00,34.0,-99.9,29.86,North,10,16.0,-999.0,-999,-99.99,,,-99.99,,2013-04-25 07:00:00,
2013-04-25 07:22:00,34.0,-99.9,29.86,North,10,16.0,-999.0,-999,-99.99,,,-99.99,,2013-04-25 07:22:00,
2013-04-25 07:32:00,34.0,-99.9,29.86,North,10,16.0,-999.0,-999,-99.99,,,-99.99,,2013-04-25 07:32:00,
2013-04-25 07:42:00,34.0,-99.9,29.86,North,10,16.0,-999.0,-999,-99.99,,,-99.99,,2013-04-25 07:42:00,
2013-04-25 07:53:00,34.0,-99.9,29.86,North,10,16.0,-999.0,-999,-99.99,,,-99.99,,2013-04-25 07:53:00,
2013-04-25 08:00:00,34.0,-99.9,29.84,North,360,11.0,-999.0,-999,-99.99,,,-99.99,,2013-04-25 08:00:00,
2013-04-25 08:52:00,34.0,-99.9,29.84,North,360,11.0,-999.0,-999,-99.99,,,-99.99,,2013-04-25 08:52:00,
2013-04-25 09:00:00,34.0,-99.9,29.85,NW,320,8.0,-999.0,-999,-99.99,,,-99.99,,2013-04-25 09:00:00,
2013-04-25 09:42:00,34.0,-99.9,29.85,NW,320,8.0,-999.0,-999,-99.99,,,-99.99,,2013-04-25 09:42:00,
2013-04-25 09:53:00,34.0,-99.9,29.85,NW,320,8.0,-999.0,-999,-99.99,,,-99.99,,2013-04-25 09:53:00,
2013-04-25 10:00:00,34.0,-99.9,29.85,West,280,13.0,-999.0,-999,-99.99,,,-99.99,,2013-04-25 10:00:00,
2013-04-25 10:42:00,34.0,-99.9,29.85,West,280,13.0,-999.0,-999,-99.99,,,-99.99,,2013-04-25 10:42:00,
2013-04-25 10:53:00,34.0,-99.9,29.85,West,280,13.0,-999.0,-999,-99.99,,,-99.99,,2013-04-25 10:53:00,
2013-04-25 11:00:00,33.0,-99.9,29.87,WNW,300,13.0,-999.0,-999,-99.99,,,-99.99,,2013-04-25 11:00:00,
2013-04-25 11:42:00,33.0,-99.9,29.87,WNW,300,13.0,-999.0,-999,-99.99,,,-99.99,,2013-04-25 11:42:00,
2013-04-25 11:52:00,33.0,-99.9,29.87,WNW,300,13.0,-999.0,-999,-99.99,,,-99.99,,2013-04-25 11:52:00,
2013-04-25 12:00:00,32.0,-99.9,29.89,West,280,14.0,-999.0,-999,-99.99,,,-99.99,,2013-04-25 12:00:00,
2013-04-25 12:22:00,32.0,-99.9,29.89,West,280,14.0,-999.0,-999,-99.99,,,-99.99,,2013-04-25 12:22:00,
2013-04-25 12:32:00,32.0,-99.9,29.89,West,280,14.0,-999.0,-999,-99.99,,,-99.99,,2013-04-25 12:32:00,
2013-04-25 12:42:00,32.0,-99.9,29.89,West,280,14.0,-999.0,-999,-99.99,,,-99.99,,2013-04-25 12:42:00,
2013-04-25 12:52:00,32.0,-99.9,29.89,West,280,14.0,-999.0,-999,-99.99,,,-99.99,,2013-04-25 12:52:00,
2013-04-25 13:00:00,43.0,-99.9,29.91,NW,320,23.0,-999.0,-999,-99.99,,,-99.99,,2013-04-25 13:00:00,
2013-04-25 13:21:00,43.0,-99.9,29.91,NW,320,23.0,-999.0,-999,-99.99,,,-99.99,,2013-04-25 13:21:00,
2013-04-25 13:32:00,43.0,-99.9,29.91,NW,320,23.0,-999.0,-999,-99.99,,,-99.99,,2013-04-25 13:32:00,
2013-04-25 13:42:00,43.0,-99.9,29.91,NW,320,23.0,-999.0,-999,-99.99,,,-99.99,,2013-04-25 13:42:00,
2013-04-25 13:53:00,43.0,-99.9,29.91,NW,320,23.0,-999.0,-999,-99.99,,,-99.99,,2013-04-25 13:53:00,
2013-04-25 14:00:00,42.0,-99.9,29.95,WNW,290,22.0,-999.0,-999,-99.99,,,-99.99,,2013-04-25 14:00:00,
2013-04-25 14:22:00,42.0,-99.9,29.95,WNW,290,22.0,-999.0,-999,-99.99,,,-99.99,,2013-04-25 14:22:00,
2013-04-25 14:32:00,42.0,-99.9,29.95,WNW,290,22.0,-999.0,-999,-99.99,,,-99.99,,2013-04-25 14:32:00,
2013-04-25 14:42:00,42.0,-99.9,29.95,WNW,290,22.0,-999.0,-999,-99.99,,,-99.99,,2013-04-25 14:42:00,
2013-04-25 14:52:00,42.0,-99.9,29.95,WNW,290,22.0,-999.0,-999,-99.99,,,-99.99,,2013-04-25 14:52:00,
2013-04-25 15:00:00,38.0,-99.9,29.98,WNW,290,26.0,-999.0,-999,-99.99,,,-99.99,,2013-04-25 15:00:00,
2013-04-25 15:22:00,38.0,-99.9,29.98,WNW,290,26.0,-999.0,-999,-99.99,,,-99.99,,2013-04-25 15:22:00,
2013-04-25 15:33:00,38.0,-99.9,29.98,WNW,290,26.0,-999.0,-999,-99.99,,,-99.99,,2013-04-25 15:33:00,
2013-04-25 15:42:00,38.0,-99.9,29.98,WNW,290,26.0,-999.0,-999,-99.99,,,-99.99,,2013-04-25 15:42:00,
2013-04-25 15:53:00,38.0,-99.9,29.98,WNW,290,26.0,-999.0,-999,-99.99,,,-99.99,,2013-04-25 15:53:00,
2013-04-25 16:00:00,38.0,-99.9,30.03,WNW,290,25.0,-999.0,-999,-99.99,,,-99.99,,2013-04-25 16:00:00,
2013-04-25 16:13:00,38.0,-99.9,30.03,WNW,290,25.0,-999.0,-999,-99.99,,,-99.99,,2013-04-25 16:13:00,
2013-04-25 16:24:00,38.0,-99.9,30.03,WNW,290,25.0,-999.0,-999,-99.99,,,-99.99,,2013-04-25 16:24:00,
2013-04-25 16:33:00,38.0,-99.9,30.03,WNW,290,25.0,-999.0,-999,-99.99,,,-99.99,,2013-04-25 16:33:00,
2013-04-25 16:43:00,38.0,-99.9,30.03,WNW,290,25.0,-999.0,-999,-99.99,,,-99.99,,2013-04-25 16:43:00,
2013-04-25 16:53:00,38.0,-99.9,30.03,WNW,290,25.0,-999.0,-999,-99.99,,,-99.99,,2013-04-25 16:53:00,
2013-04-25 17:00:00,33.0,-99.9,30.04,WSW,250,28.0,-999.0,-999,-99.99,,,-99.99,,2013-04-25 17:00:00,
2013-04-25 17:22:00,33.0,-99.9,30.04,WSW,250,28.0,-999.0,-999,-99.99,,,-99.99,,2013-04-25 17:22:00,
2013-04-25 17:32:00,33.0,-99.9,30.04,WSW,250,28.0,-999.0,-999,-99.99,,,-99.99,,2013-04-25 17:32:00,
2013-04-25 17:42:00,33.0,-99.9,30.04,WSW,250,28.0,-999.0,-999,-99.99,,,-99.99,,2013-04-25 17:42:00,
2013-04-25 17:53:00,33.0,-99.9,30.04,WSW,250,28.0,-999.0,-999,-99.99,,,-99.99,,2013-04-25 17:53:00,
2013-04-25 18:00:00,34.0,-99.9,30.06,West,260,24.0,-999.0,-999,-99.99,,,-99.99,,2013-04-25 18:00:00,
2013-04-25 18:11:00,34.0,-99.9,30.06,West,260,24.0,-999.0,-999,-99.99,,,-99.99,,2013-04-25 18:11:00,
2013-04-25 18:22:00,34.0,-99.9,30.06,West,260,24.0,-999.0,-999,-99.99,,,-99.99,,2013-04-25 18:22:00,
2013-04-25 18:32:00,34.0,-99.9,30.06,West,260,24.0,-999.0,-999,-99.99,,,-99.99,,2013-04-25 18:32:00,
2013-04-25 18:43:00,34.0,-99.9,30.06,West,260,24.0,-999.0,-999,-99.99,,,-99.99,,2013-04-25 18:43:00,
2013-04-25 18:53:00,34.0,-99.9,30.06,West,260,24.0,-999.0,-999,-99.99,,,-99.99,,2013-04-25 18:53:00,
2013-04-25 19:00:00,34.0,-99.9,30.07,West,260,29.0,-999.0,-999,-99.99,,,-99.99,,2013-04-25 19:00:00,
2013-04-25 19:21:00,34.0,-99.9,30.07,West,260,29.0,-999.0,-999,-99.99,,,-99.99,,2013-04-25 19:21:00,
2013-04-25 19:32:00,34.0,-99.9,30.07,West,260,29.0,-999.0,-999,-99.99,,,-99.99,,2013-04-25 19:32:00,
2013-04-25 19:42:00,34.0,-99.9,30.07,West,260,29.0,-999.0,-999,-99.99,,,-99.99,,2013-04-25 19:42:00,
2013-04-25 19:52:00,34.0,-99.9,30.07,West,260,29.0,-999.0,-999,-99.99,,,-99.99,,2013-04-25 19:52:00,
2013-04-25 20:00:00,40.0,-99.9,30.08,WSW,240,23.0,-999.0,-999,-99.99,,,-99.99,,2013-04-25 20:00:00,
2013-04-25 20:32:00,40.0,-99.9,30.08,WSW,240,23.0,-999.0,-999,-99.99,,,-99.99,,2013-04-25 20:32:00,
2013-04-25 20:43:00,40.0,-99.9,30.08,WSW,240,23.0,-999.0,-999,-99.99,,,-99.99,,2013-04-25 20:43:00,
2013-04-25 20:52:00,40.0,-99.9,30.08,WSW,240,23.0,-999.0,-999,-99.99,,,-99.99,,2013-04-25 20:52:00,
2013-04-25 21:00:00,41.0,-99.9,30.07,SW,230,23.0,-999.0,-999,-99.99,,,-99.99,,2013-04-25 21:00:00,
2013-04-25 21:22:00,41.0,-99.9,30.07,SW,230,23.0,-999.0,-999,-99.99,,,-99.99,,2013-04-25 21:22:00,
2013-04-25 21:33:00,41.0,-99.9,30.07,SW,230,23.0,-999.0,-999,-99.99,,,-99.99,,2013-04-25 21:33:00,
2013-04-25 21:42:00,41.0,-99.9,30.07,SW,230,23.0,-999.0,-999,-99.99,,,-99.99,,2013-04-25 21:42:00,
2013-04-25 21:53:00,41.0,-99.9,30.07,SW,230,23.0,-999.0,-999,-99.99,,,-99.99,,2013-04-25 21:53:00,
2013-04-25 22:00:00,44.0,-99.9,30.07,WSW,240,18.0,-999.0,-999,-99.99,,,-99.99,,2013-04-25 22:00:00,
2013-04-25 22:22:00,44.0,-99.9,30.07,WSW,240,18.0,-999.0,-999,-99.99,,,-99.99,,2013-04-25 22:22:00,
2013-04-25 22:33:00,44.0,-99.9,30.07,WSW,240,18.0,-999.0,-999,-99.99,,,-99.99,,2013-04-25 22:33:00,
2013-04-25 22:42:00,44.0,-99.9,30.07,WSW,240,18.0,-999.0,-999,-99.99,,,-99.99,,2013-04-25 22:42:00,
2013-04-25 22:53:00,44.0,-99.9,30.07,WSW,240,18.0,-999.0,-999,-99.99,,,-99.99,,2013-04-25 22:53:00,